Stations météo

réclame
Mon MeteoGroup
Ajaccio, France (7761): Température de l'air & dewpoint: 20.08.2019 03:00:00 - 26.08.2019 03:00:00 (CEST)Ajaccio, France (7761): Température de l'air 5cm: 20.08.2019 03:00:00 - 26.08.2019 03:00:00 (CEST)Ajaccio, France (7761): Température de l'air -20cm & Température de l'air -100cm: 20.08.2019 03:00:00 - 26.08.2019 03:00:00 (CEST)Ajaccio, France (7761): Vitesse du vent & gusts: 20.08.2019 03:00:00 - 26.08.2019 03:00:00 (CEST)Ajaccio, France (7761): Direction du vent: 20.08.2019 03:00:00 - 26.08.2019 03:00:00 (CEST)Ajaccio, France (7761): reduced air pressure: 20.08.2019 03:00:00 - 26.08.2019 03:00:00 (CEST)Ajaccio, France (7761): visibility: 20.08.2019 03:00:00 - 26.08.2019 03:00:00 (CEST)Ajaccio, France (7761): Ensoleillement: 20.08.2019 03:00:00 - 26.08.2019 03:00:00 (CEST)Ajaccio, France (7761): Quantités de précipitations: 20.08.2019 03:00:00 - 26.08.2019 03:00:00 (CEST)
Date & Time tt [°C] td [°C] tt 5cm [°C] tt -20cm [°C] tt -100cm [°C] ff [km/h] ff [knt] fx [km/h] fx [knt] dd ppp [hPa] vv [km] sd [min] rr [mm]
26.08.2019 03:00:00 22,2 18,0 21,5 30,6 28,5 7 4 19 10 NE 1016,5 17 0 0,0
26.08.2019 02:00:00 23,0 18,3 22,3 30,7 28,5 9 5 18 10 NE 1016,9 16 0 0,0
26.08.2019 01:00:00 22,9 18,7 22,4 30,7 28,5 10 5 16 9 NE 1017,1 15 0 0,0
26.08.2019 00:00:00 23,5 19,0 22,5 30,7 28,5 9 5 16 9 NE 1017,3 14 0 0,0
25.08.2019 23:00:00 24,8 19,4 23,7 30,7 28,5 9 5 16 9 NE 1017,0 17 0 0,0
25.08.2019 22:00:00 26,0 19,9 24,9 30,6 28,5 5 3 12 6 NE 1016,7 20 0 0,0
25.08.2019 21:00:00 27,1 20,0 26,2 30,4 28,5 3 2 11 6 ENE 1016,3 21 0 0,0
25.08.2019 20:00:00 28,2 18,9 28,0 30,2 28,5 7 4 13 7 NNE 1015,7 26 26 0,0
25.08.2019 19:00:00 28,3 20,6 30,1 29,9 28,5 7 4 12 6 WSW 1015,5 28 16 0,0
25.08.2019 18:00:00 28,8 20,0 31,2 29,7 28,5 8 5 17 9 SSW 1015,9 34 36 0,0
25.08.2019 17:00:00 28,8 21,1 32,4 29,4 28,5 13 7 25 13 S 1016,1 18 60 0,0
25.08.2019 16:00:00 28,8 21,3 33,9 29,2 28,5 18 10 26 14 SSW 1016,1 18 60 0,0
25.08.2019 15:00:00 28,8 21,6 35,9 29,1 28,5 19 10 31 17 SW 1016,3 19 60 0,0
25.08.2019 14:00:00 28,7 21,7 37,6 29,0 28,6 20 11 44 24 SW 1016,7 19 60 0,0
25.08.2019 13:00:00 28,4 21,4 37,6 29,0 28,6 18 10 34 19 SW 1016,9 20 60 0,0
25.08.2019 12:00:00 27,6 20,4 36,0 29,1 28,5 12 7 22 12 WSW 1017,2 20 60 0,0
25.08.2019 11:00:00 27,1 20,0 33,9 29,3 28,6 9 5 20 11 WSW 1017,5 30 60 0,0
25.08.2019 10:00:00 26,7 18,0 27,9 29,4 28,5 3 2 11 6 NNW 1017,3 23 60 0,0
25.08.2019 09:00:00 23,7 17,7 22,1 29,6 28,6 9 5 18 10 NNE 1017,2 20 60 0,0
25.08.2019 08:00:00 20,6 16,4 18,9 29,8 28,5 10 5 20 11 NE 1016,9 17 44 0,0
25.08.2019 07:00:00 19,2 16,2 18,1 30,0 28,5 13 7 18 10 NE 1016,6 12 0 0,0
25.08.2019 06:00:00 19,7 16,0 18,7 30,1 28,6 11 6 18 10 NE 1016,5 13 0 0,0
25.08.2019 05:00:00 19,7 16,2 19,0 30,3 28,6 11 6 21 11 NE 1016,3 15 0 0,0
25.08.2019 04:00:00 20,1 16,3 19,2 30,5 28,6 13 7 21 11 NNE 1016,6 16 0 0,0
25.08.2019 03:00:00 20,3 16,5 19,5 30,7 28,6 12 6 21 11 NNE 1016,9 16 0 0,0
25.08.2019 02:00:00 20,5 16,7 19,8 30,8 28,5 12 7 19 10 NE 1017,2 14 0 0,0
25.08.2019 01:00:00 20,9 17,3 20,2 30,9 28,6 12 6 18 10 NNE 1017,5 15 0 0,0
25.08.2019 00:00:00 22,0 17,8 21,0 31,0 28,6 9 5 20 11 NNE 1017,4 16 0 0,0
24.08.2019 23:00:00 22,8 17,9 22,1 31,0 28,5 9 5 19 10 NNE 1017,0 16 0 0,0
24.08.2019 22:00:00 23,9 19,0 23,0 31,1 28,6 8 5 19 10 NE 1016,7 19 0 0,0
24.08.2019 21:00:00 25,6 19,9 24,5 31,0 28,6 8 4 17 9 ENE 1016,3 17 0 0,0
24.08.2019 20:00:00 26,7 21,2 26,3 30,9 28,6 3 2 8 4 WNW 1015,9 23 41 0,0
24.08.2019 19:00:00 27,2 20,3 26,6 30,8 28,6 4 2 12 6 ENE 1016,0 20 60 0,0
24.08.2019 18:00:00 25,6 20,8 23,2 30,5 28,6 7 4 20 11 NE 1016,6 36 14 0,0
24.08.2019 17:00:00 23,4 20,3 21,2 30,3 28,6 15 8 26 14 NNE 1017,0 17 0 1,4
24.08.2019 16:00:00 23,5 19,2 21,1 30,1 28,6 25 14 48 26 NNE 1017,8 6 23 1,0
24.08.2019 15:00:00 29,5 20,9 36,1 29,9 28,6 20 11 48 26 SW 1017,1 19 52 0,0
24.08.2019 14:00:00 28,9 21,4 37,9 29,8 28,5 22 12 38 20 SW 1017,2 20 60 0,0
24.08.2019 13:00:00 29,0 21,2 38,3 29,9 28,6 20 11 32 18 SW 1017,3 20 60 0,0
24.08.2019 12:00:00 28,4 20,2 38,1 29,9 28,6 16 9 22 12 SW 1017,6 20 60 0,0
24.08.2019 11:00:00 27,9 18,3 36,1 30,0 28,6 11 6 18 10 SW 1017,8 20 60 0,0
24.08.2019 10:00:00 27,4 17,6 28,8 30,2 28,6 5 3 12 6 WSW 1017,6 20 60 0,0
24.08.2019 09:00:00 24,4 16,9 23,1 30,3 28,5 8 4 16 9 NNE 1017,6 33 60 0,0
24.08.2019 08:00:00 21,4 16,4 19,5 30,5 28,6 10 5 19 11 NE 1017,7 21 29 0,0
24.08.2019 07:00:00 19,8 16,1 19,2 30,6 28,6 12 7 19 11 NE 1017,8 20 0 0,0
24.08.2019 06:00:00 19,9 16,1 19,3 30,8 28,6 12 6 18 10 NE 1017,6 21 0 0,0
24.08.2019 05:00:00 20,0 16,2 19,3 30,9 28,6 12 6 19 11 NE 1017,6 21 0 0,0
24.08.2019 04:00:00 20,2 16,4 19,6 31,1 28,6 13 7 19 10 NE 1017,6 20 0 0,0
24.08.2019 03:00:00 20,6 16,6 20,0 31,2 28,6 10 5 14 8 NE 1017,7 19 0 0,0
24.08.2019 02:00:00 21,0 16,8 20,4 31,3 28,6 9 5 18 10 NE 1017,9 21 0 0,0
24.08.2019 01:00:00 21,0 16,8 20,4 31,4 28,6 13 7 19 11 NNE 1018,1 23 0 0,0
24.08.2019 00:00:00 21,5 17,1 20,9 31,4 28,6 10 5 21 11 NNE 1018,0 21 0 0,0
23.08.2019 23:00:00 21,9 17,5 21,2 31,3 28,6 12 6 17 9 NE 1018,0 23 0 0,0
23.08.2019 22:00:00 23,2 18,1 22,5 31,3 28,6 9 5 18 10 NE 1017,8 25 0 0,0
23.08.2019 21:00:00 24,7 18,2 23,8 31,2 28,6 9 5 15 8 NE 1017,7 31 0 0,0
23.08.2019 20:00:00 25,8 17,7 25,3 31,0 28,6 5 3 11 6 ENE 1017,4 38 37 0,0
23.08.2019 19:00:00 26,7 17,2 27,3 30,8 28,6 9 5 26 14 NNE 1017,3 37 60 0,0
23.08.2019 18:00:00 27,3 17,2 27,7 30,6 28,6 15 8 41 22 ENE 1017,6 29 35 0,0
23.08.2019 17:00:00 25,7 16,8 26,7 30,4 28,5 23 12 47 25 E 1017,8 24 48 0,0
23.08.2019 16:00:00 29,6 21,3 34,5 30,2 28,6 16 9 32 17 SW 1017,2 19 58 0,0
23.08.2019 15:00:00 28,5 22,0 34,8 30,1 28,6 20 11 28 15 WSW 1017,6 20 34 0,0
23.08.2019 14:00:00 28,6 22,1 31,9 30,0 28,6 13 7 29 16 SW 1017,9 20 19 0,0
23.08.2019 13:00:00 27,5 21,8 32,0 30,0 28,6 17 9 27 15 SW 1018,3 22 13 0,0
23.08.2019 12:00:00 28,7 21,7 36,2 30,1 28,6 18 10 28 15 SSW 1018,9 21 58 0,0
23.08.2019 11:00:00 28,2 18,9 33,7 30,2 28,6 12 7 24 13 SW 1018,5 23 57 0,0
23.08.2019 10:00:00 27,4 17,0 28,3 30,4 28,6 5 3 13 7 NNW 1018,0 31 26 0,0
23.08.2019 09:00:00 24,6 15,5 23,3 30,5 28,6 5 3 12 7 NNE 1017,8 34 36 0,0
23.08.2019 08:00:00 22,3 16,3 21,3 30,6 28,6 6 3 15 8 ENE 1018,2 30 1 0,0
23.08.2019 07:00:00 21,4 15,7 20,5 30,8 28,6 8 4 13 7 NE 1017,6 31 0 0,0
23.08.2019 06:00:00 21,6 15,9 19,8 30,9 28,6 2 1 9 5 ENE 1017,8 28 0 0,0
23.08.2019 05:00:00 21,6 16,3 20,3 31,0 28,6 6 4 13 7 ENE 1017,7 29 0 0,0
23.08.2019 04:00:00 22,7 16,3 21,6 31,2 28,6 8 4 16 9 NE 1017,9 33 0 0,0
23.08.2019 03:00:00 22,3 17,0 21,6 31,2 28,6 10 5 16 8 NE 1018,3 32 0 0,0
23.08.2019 02:00:00 23,3 17,5 21,0 31,3 28,6 11 6 18 10 NE 1018,4 29 0 0,0
23.08.2019 01:00:00 23,0 17,0 22,6 31,4 28,6 12 7 18 10 NE 1018,3 32 0 0,0
23.08.2019 00:00:00 23,2 17,4 22,7 31,4 28,6 11 6 14 8 NE 1018,3 32 0 0,0
22.08.2019 23:00:00 24,2 17,4 23,5 31,4 28,6 3 2 9 5 ENE 1018,5 30 0 0,0
22.08.2019 22:00:00 25,1 18,5 23,9 31,3 28,5 8 4 10 5 ENE 1018,3 28 0 0,0
22.08.2019 21:00:00 26,3 19,4 25,6 31,2 28,6 6 3 13 7 NE 1017,5 26 0 0,0
22.08.2019 20:00:00 26,3 22,8 26,1 31,1 28,6 8 5 17 9 S 1016,8 16 6 0,0
22.08.2019 19:00:00 27,4 22,8 28,5 30,9 28,6 12 6 17 9 SW 1016,6 19 23 0,0
22.08.2019 18:00:00 28,3 22,5 30,1 30,6 28,6 8 5 23 13 SSW 1017,1 29 1 0,0
22.08.2019 17:00:00 29,9 21,3 32,4 30,5 28,6 16 8 24 13 SSW 1017,4 32 34 0,0
22.08.2019 16:00:00 29,8 21,5 32,8 30,3 28,6 16 9 26 14 S 1017,4 32 23 0,0
22.08.2019 15:00:00 29,1 20,8 32,3 30,2 28,6 17 9 31 17 S 1017,6 29 22 0,0
22.08.2019 14:00:00 29,7 19,7 33,5 30,1 28,6 22 12 32 17 S 1017,7 23 53 0,0
22.08.2019 13:00:00 29,7 20,0 33,4 30,1 28,6 21 11 30 16 S 1018,1 26 58 0,0
22.08.2019 12:00:00 28,3 20,3 34,1 30,2 28,6 15 8 22 12 SW 1018,0 30 58 0,0
22.08.2019 11:00:00 27,9 16,2 32,0 30,3 28,6 7 4 14 7 SW 1017,8 34 46 0,0
22.08.2019 10:00:00 26,6 16,5 24,2 30,5 28,6 3 2 10 5 E 1017,9 20 29 0,0
22.08.2019 09:00:00 23,4 16,4 22,6 30,6 28,6 6 4 14 7 NE 1017,8 29 21 0,0
22.08.2019 08:00:00 22,2 16,0 20,8 30,8 28,6 5 3 15 8 NNE 1017,9 30 6 0,0
22.08.2019 07:00:00 20,6 16,0 19,9 30,9 28,6 10 6 15 8 NE 1017,6 25 0 0,0
22.08.2019 06:00:00 20,7 15,9 20,2 31,1 28,6 8 5 16 9 NE 1017,1 28 0 0,0
22.08.2019 05:00:00 20,5 15,9 19,5 31,3 28,6 11 6 16 9 NE 1017,1 26 0 0,0
22.08.2019 04:00:00 20,2 16,4 19,7 31,4 28,6 8 5 11 6 NE 1017,3 18 0 0,0
22.08.2019 03:00:00 20,8 17,0 20,0 31,5 28,6 3 2 11 6 ENE 1017,4 21 0 0,0
22.08.2019 02:00:00 20,9 16,9 20,2 31,6 28,6 6 3 8 5 NE 1017,5 19 0 0,0
22.08.2019 01:00:00 21,4 17,8 20,7 31,7 28,6 5 3 11 6 NE 1017,8 23 0 0,0
22.08.2019 00:00:00 22,1 18,1 21,2 31,7 28,6 6 3 9 5 NE 1017,9 23 0 0,0
21.08.2019 23:00:00 23,1 18,4 22,1 31,6 28,6 3 1 9 5 E 1017,7 28 0 0,0
21.08.2019 22:00:00 23,9 18,1 22,6 31,5 28,6 6 4 9 5 NE 1017,4 34 0 0,0
21.08.2019 21:00:00 25,2 18,6 23,6 31,4 28,6 3 2 9 5 SE 1016,8 35 0 0,0
21.08.2019 20:00:00 26,4 19,3 26,0 31,2 28,6 5 3 16 9 SSW 1016,5 37 45 0,0
21.08.2019 19:00:00 27,5 20,6 28,9 30,9 28,6 14 7 21 12 SSW 1016,5 23 60 0,0
21.08.2019 18:00:00 28,4 20,2 30,8 30,6 28,5 12 7 23 12 SSW 1016,6 22 60 0,0
21.08.2019 17:00:00 28,3 20,3 31,2 30,4 28,6 11 6 22 12 SW 1016,9 20 60 0,0
21.08.2019 16:00:00 28,7 21,0 34,2 30,1 28,5 17 9 27 14 SSW 1017,3 18 60 0,0
21.08.2019 15:00:00 28,4 21,4 36,6 30,0 28,6 19 10 36 19 SW 1017,3 19 60 0,0
21.08.2019 14:00:00 28,3 21,3 37,6 29,9 28,6 18 10 26 14 SW 1017,6 20 60 0,0
21.08.2019 13:00:00 28,0 21,5 37,3 29,9 28,6 18 10 43 23 SW 1017,8 20 60 0,0
21.08.2019 12:00:00 27,9 21,0 36,9 30,0 28,6 17 9 24 13 SW 1017,9 29 60 0,0
21.08.2019 11:00:00 27,2 20,3 35,3 30,1 28,5 12 7 21 11 SW 1018,1 35 60 0,0
21.08.2019 10:00:00 25,9 17,0 30,4 30,3 28,6 8 4 14 7 SW 1018,0 39 60 0,0
21.08.2019 09:00:00 25,5 14,9 23,3 30,5 28,5 5 3 11 6 NNE 1017,7 42 60 0,0
21.08.2019 08:00:00 21,4 14,5 18,6 30,6 28,5 4 2 18 10 E 1017,9 34 50 0,0
21.08.2019 07:00:00 19,0 13,8 17,2 30,9 28,6 16 8 21 12 NE 1017,4 42 0 0,0
21.08.2019 06:00:00 18,5 13,8 17,4 31,1 28,6 11 6 18 10 NNE 1017,3 50 0 0,0
21.08.2019 05:00:00 19,0 13,6 17,8 31,2 28,5 11 6 14 8 NE 1017,3 42 0 0,0
21.08.2019 04:00:00 19,4 13,3 18,4 31,4 28,6 6 3 16 9 E 1017,0 48 0 0,0
21.08.2019 03:00:00 19,6 13,3 18,7 31,5 28,6 8 4 12 7 NE 1016,9 50 0 0,0
21.08.2019 02:00:00 20,5 13,5 18,9 31,6 28,6 8 4 16 9 N 1017,3 55 0 0,0
21.08.2019 01:00:00 20,0 12,7 18,9 31,7 28,6 4 2 8 5 E 1017,1 54 0 0,0
21.08.2019 00:00:00 21,6 12,7 20,2 31,7 28,6 7 4 11 6 NE 1017,3 60 0 0,0
20.08.2019 23:00:00 22,5 12,7 21,3 31,7 28,6 8 4 17 9 NNE 1017,1 60 0 0,0
20.08.2019 22:00:00 23,3 12,3 22,1 31,6 28,6 11 6 16 9 NE 1017,2 60 0 0,0
20.08.2019 21:00:00 26,3 12,7 24,9 31,5 28,6 6 3 10 5 NE 1017,2 60 0 0,0
20.08.2019 20:00:00 28,3 14,5 27,5 31,3 28,5 3 1 16 8 S 1017,0 59 60 0,0
20.08.2019 19:00:00 28,7 19,6 29,7 31,0 28,5 14 7 27 14 S 1016,7 24 60 0,0
20.08.2019 18:00:00 29,6 20,2 31,0 30,7 28,6 18 10 29 15 S 1016,6 18 60 0,0
20.08.2019 17:00:00 29,6 20,2 31,0 30,5 28,6 19 10 32 17 S 1016,6 17 60 0,0
20.08.2019 16:00:00 29,6 21,3 33,1 30,2 28,5 22 12 33 18 S 1016,5 19 60 0,0
20.08.2019 15:00:00 29,0 21,8 35,4 30,0 28,6 20 11 29 16 SSW 1016,8 19 60 0,0
20.08.2019 14:00:00 29,1 21,8 36,4 30,0 28,6 22 12 31 17 SSW 1017,1 21 60 0,0
20.08.2019 13:00:00 28,7 21,5 36,7 29,9 28,6 17 9 24 13 SSW 1017,1 25 60 0,0
20.08.2019 12:00:00 28,3 21,6 36,8 30,0 28,6 16 9 23 13 SW 1017,3 20 60 0,0
20.08.2019 11:00:00 27,5 20,3 35,4 30,1 28,6 15 8 25 14 SW 1017,2 38 60 0,0
20.08.2019 10:00:00 26,9 17,7 31,4 30,3 28,5 9 5 15 8 SW 1017,0 44 60 0,0
20.08.2019 09:00:00 25,5 15,5 23,2 30,5 28,5 4 2 11 6 NNE 1016,6 53 60 0,0
20.08.2019 08:00:00 21,1 14,7 19,0 30,6 28,5 9 5 16 9 NE 1016,4 45 58 0,0
20.08.2019 07:00:00 19,3 14,1 18,0 30,8 28,5 13 7 20 11 NE 1016,3 47 0 0,0
20.08.2019 06:00:00 18,9 14,2 18,1 31,0 28,6 9 5 16 9 NE 1016,3 48 0 0,0
20.08.2019 05:00:00 19,5 14,1 18,3 31,2 28,6 11 6 18 10 NE 1016,3 54 0 0,0
20.08.2019 04:00:00 20,0 14,1 18,9 31,3 28,5 10 6 18 10 NE 1016,7 54 0 0,0
20.08.2019 03:00:00 20,3 14,2 18,6 31,4 28,5 10 6 18 10 NE 1017,0 52 0 0,0

tt = Température de l'air
td = dewpoint
tt 5cm = Température de l'air 5cm
tt -20cm = Température de l'air -20cm
tt -100cm = Température de l'air -100cm
ff = Vitesse du vent
fx = gusts
dd = Direction du vent
ppp = reduced air pressure
vv = visibility
sd = Ensoleillement
rr = Quantités de précipitations

stations d'obs. à proximité